RH
67 58 68 70 74 74 55 42 48 55 59 56 43 47 56 65 61 81 87 79 84 85 83 82 83 78 76 75 75 76 75 75 74 74 73 73 72 73 72 71 71 71 70 70 73 72 71 70 72
61 59 81 86 84 80 67 55 62 50 51 46 44 52 57 78 75 91 91 81 78 81 83 84 85 83 78 77 75 74 74 74 74 73 72 71 71 72 72 70 69 71 71 70 72 70 70 74 72
56 58 83 91 92 79 74 55 56 45 43 46 52 49 57 84 81 84 83 77 78 83 86 86 84 83 79 78 76 74 73 74 74 74 73 72 72 72 71 69 68 71 72 71 72 70 70 68 70
59 71 82 83 80 70 56 53 52 52 47 43 48 62 56 59 73 78 76 78 86 90 88 83 81 78 78 78 77 76 78 74 73 74 72 72 71 72 70 69 69 70 71 72 70 69 69 68 69
75 80 81 83 75 68 55 52 51 62 53 49 51 69 71 66 71 75 79 79 89 91 86 83 83 81 80 77 77 76 76 76 76 74 73 73 71 71 70 69 71 71 71 71 69 68 67 72 69
72 81 80 80 71 55 56 49 50 62 55 55 61 67 74 75 80 79 76 84 84 89 89 85 79 79 78 75 76 75 74 75 75 74 73 72 72 71 70 70 71 71 72 71 70 68 67 66 70
65 79 76 76 70 66 57 43 60 57 61 60 46 76 84 82 75 73 77 82 83 85 90 90 84 76 76 78 77 76 72 77 77 76 75 75 74 74 73 73 73 72 70 71 68 68 70 71 72
64 71 72 69 63 56 52 45 42 54 62 44 45 75 94 75 70 70 81 87 87 89 94 82 82 84 90 84 76 75 75 75 75 76 74 75 74 73 73 77 75 72 71 72 68 73 70 80 82
54 79 80 65 56 47 50 48 40 44 58 50 51 56 62 62 67 83 94 94 94 91 94 87 84 93 95 91 82 76 74 74 75 75 74 78 90 84 79 80 76 72 69 70 69 79 76 79 83
51 67 58 48 46 49 46 52 46 53 58 63 60 58 56 65 77 86 89 95 94 94 93 94 95 96 96 79 90 90 86 91 93 91 90 96 94 94 81 80 74 72 72 69 77 81 78 86 96
45 50 35 35 42 37 42 46 43 56 65 63 67 72 69 69 75 78 81 84 86 86 85 94 94 96 96 93 95 96 96 98 97 95 95 96 93 95 91 94 94 97 84 92 88 88 95 91 95
44 34 28 28 39 39 46 44 48 57 51 48 55 63 65 69 73 73 75 80 83 83 80 90 89 91 96 96 97 98 98 98 99 98 96 98 98 96 92 93 96 97 92 93 94 97 94 89 86
23 21 19 20 38 39 42 48 50 53 48 48 50 58 62 66 68 68 66 71 76 76 73 82 82 86 88 94 97 98 98 98 97 97 95 95 95 93 87 92 96 96 88 96 96 98 96 92 93
20 20 21 20 34 42 44 53 40 50 49 52 51 57 59 64 65 68 67 68 74 70 73 74 78 79 86 97 92 94 95 92 93 94 93 90 91 88 80 85 90 88 93 95 98 96 97 96 95
18 19 21 21 29 43 43 57 50 44 46 50 54 54 58 60 62 67 65 66 70 68 69 72 76 76 83 85 84 89 89 84 94 90 88 86 84 77 79 79 78 85 88 94 98 97 98 98 96
20 24 28 23 26 29 24 27 38 43 47 50 51 55 53 59 60 61 60 60 65 64 71 73 66 74 78 81 83 84 85 83 80 84 87 81 82 76 82 84 89 93 96 98 99 98 99 99 99
26 30 27 27 27 24 20 24 42 40 46 51 51 52 51 53 58 58 58 56 62 60 67 75 69 74 76 84 80 82 82 87 82 86 86 83 74 72 81 86 92 94 97 98 97 96 97 99 99
30 25 20 24 26 29 25 23 45 41 46 49 50 52 51 51 55 56 57 58 55 55 64 69 72 76 74 83 83 87 87 86 84 82 81 78 77 74 86 89 92 93 95 96 96 93 94 96 98
22 23 23 18 18 27 28 25 45 40 45 49 48 53 58 51 47 50 52 61 59 57 64 70 74 79 77 91 92 96 91 89 90 84 78 75 77 77 86 90 88 92 90 84 93 88 88 93 97
19 19 18 16 17 19 24 14 16 42 43 46 46 45 52 51 57 51 57 60 62 66 66 68 70 78 75 71 77 84 86 90 85 86 84 78 74 77 85 92 86 84 90 86 87 86 93 90 96
16 18 15 17 17 15 15 18 15 31 42 43 46 41 40 49 53 53 58 59 61 65 69 69 69 71 72 75 84 96 93 96 94 91 88 82 74 77 78 90 87 85 88 87 86 90 86 91 89
22 13 13 17 20 17 15 19 18 18 19 27 37 48 46 44 47 52 55 58 59 60 63 67 67 69 68 86 80 83 85 90 89 88 87 86 77 77 80 84 86 90 94 92 92 91 92 86 88
13 13 14 18 17 18 20 18 16 16 13 15 26 43 45 41 46 53 52 54 54 54 60 64 69 71 70 80 73 78 82 81 89 89 86 88 88 80 78 83 88 90 91 87 93 87 87 93 92
13 16 17 22 20 19 17 17 18 18 15 19 28 40 41 41 44 49 49 50 53 52 56 61 75 76 73 76 78 75 72 88 94 93 94 94 95 89 82 79 88 90 90 91 90 88 84 83 94
16 22 28 23 24 19 28 22 24 28 27 29 32 32 40 43 43 50 53 52 54 55 57 61 77 83 77 77 77 77 74 77 89 88 95 95 94 96 87 85 88 92 90 93 94 91 84 78 90
26 22 27 36 26 23 25 25 38 37 39 42 47 49 46 40 46 48 51 51 55 54 58 60 76 79 79 79 77 76 72 75 78 85 93 85 81 84 83 85 91 90 92 92 95 95 88 91 92
22 23 25 24 42 28 26 34 27 60 61 57 58 56 57 54 46 46 49 50 52 54 58 61 71 73 76 77 76 76 76 76 77 86 87 83 92 83 91 91 93 95 94 93 95 95 90 90 91
24 19 29 32 39 46 31 60 96 87 79 67 70 65 64 63 54 53 49 50 51 53 56 60 69 72 75 75 73 75 77 78 77 88 92 94 90 93 95 96 94 94 94 92 94 93 91 92 93
34 39 41 37 36 45 48 86 74 82 76 75 70 67 64 67 69 61 54 51 57 66 71 68 70 74 77 76 76 76 80 82 87 88 86 87 88 94 94 95 96 97 97 98 97 94 92 95 93
30 37 53 46 49 52 49 84 73 75 73 68 72 73 72 68 71 78 82 73 72 76 69 70 75 79 78 82 80 80 85 87 85 88 90 92 88 91 92 94 95 96 98 98 97 94 82 93 94
Wind_Speed
1 5 3 2 3 5 4 4 2 4 2 3 3 3 5 3 5 4 7 9 15 14 11 11 14 15 14 15 16 16 16 15 15 16 15 15 14 13 11 10 10 9 7 7 8 8 7 7 8
3 3 3 2 6 5 4 5 5 5 5 2 4 4 2 2 4 10 8 13 16 14 10 9 14 14 15 14 15 15 15 15 15 15 14 13 12 12 10 8 8 8 7 6 7 7 6 9 8
4 4 4 5 4 4 2 4 6 8 5 1 2 3 3 3 9 12 11 16 15 13 10 10 15 14 15 15 15 15 14 14 14 13 12 12 11 10 9 7 6 6 6 6 6 6 7 6 9
3 5 4 6 6 6 2 4 6 2 1 5 4 4 4 5 8 8 19 17 14 11 10 14 16 16 16 15 14 14 14 12 13 12 10 10 9 9 7 6 5 5 6 7 6 4 3 4 7
4 3 6 6 3 2 7 9 5 6 2 4 2 2 4 5 13 19 17 15 15 11 9 11 15 15 15 15 14 13 13 12 12 11 10 9 9 8 6 6 6 6 4 5 4 3 1 0 1
4 3 5 4 2 6 6 7 2 2 2 4 4 3 2 13 19 15 15 14 12 13 9 8 14 15 15 14 14 13 13 12 11 11 9 9 9 8 7 6 7 7 6 6 3 1 1 2 2
3 4 4 3 4 1 4 3 4 1 1 2 5 3 3 9 14 15 13 12 12 11 9 6 7 12 15 13 13 12 12 11 11 9 9 10 9 8 8 8 7 7 7 6 5 3 1 3 5
4 3 4 4 3 5 5 7 3 5 3 4 7 6 5 8 15 13 11 9 9 8 6 8 6 5 6 6 14 13 12 11 10 10 9 9 9 8 8 8 7 7 6 5 3 1 6 11 11
3 4 2 7 6 6 2 6 4 2 5 3 2 3 13 18 16 13 9 6 5 5 4 5 5 5 5 5 7 11 12 11 11 8 9 7 2 3 5 6 7 6 4 1 4 9 6 5 6
5 4 7 8 8 7 6 7 8 5 2 2 2 13 18 19 17 16 13 11 9 8 5 5 6 6 5 4 3 5 5 3 4 4 3 2 3 2 3 3 6 5 2 2 8 7 1 2 1
5 6 7 8 12 6 6 5 4 8 6 7 18 19 19 19 16 16 14 16 17 13 8 7 6 6 6 4 3 2 2 2 3 4 4 3 2 2 1 1 2 3 5 2 5 2 1 3 3
4 12 9 6 8 9 7 4 5 7 5 12 19 24 20 18 17 16 15 14 13 14 13 10 8 8 6 3 4 4 3 3 3 4 5 3 2 3 3 3 2 3 3 3 2 2 3 3 2
2 5 7 2 15 11 6 5 2 6 6 14 18 20 21 18 18 15 14 12 11 14 14 13 10 9 8 5 4 4 4 4 4 4 4 3 4 4 3 3 3 3 3 5 2 3 4 5 6
5 5 8 8 8 8 8 2 3 5 7 16 20 20 19 22 19 12 13 15 15 14 14 15 13 11 9 6 6 5 4 4 4 4 4 6 4 4 3 3 4 4 4 3 5 4 3 2 4
4 7 8 5 5 6 7 1 9 10 14 18 18 18 18 18 18 21 19 18 19 15 14 15 15 13 11 10 8 5 5 5 4 5 6 6 5 4 4 4 2 3 4 3 5 3 1 2 4
7 4 6 7 3 6 11 11 8 15 18 19 17 17 19 20 22 18 18 17 15 13 13 12 11 13 12 8 7 5 5 5 6 4 4 6 6 5 4 4 2 4 3 3 4 4 2 3 4
6 2 6 10 5 5 5 8 3 14 16 15 16 17 17 18 18 16 17 17 18 15 13 12 11 12 12 8 7 6 7 5 5 4 4 6 6 6 4 4 4 5 4 3 3 3 3 3 3
2 6 8 6 5 2 4 8 6 15 17 18 15 12 13 17 23 19 17 17 16 15 13 13 9 12 11 6 5 3 3 3 4 4 5 6 5 6 4 4 4 4 4 3 2 2 2 3 4
3 4 6 14 4 4 6 8 10 16 14 16 14 9 8 17 14 15 16 17 16 16 14 13 12 11 9 3 4 2 4 3 3 4 6 6 6 6 5 3 3 2 3 3 4 3 4 2 3
5 4 8 9 4 1 1 8 7 14 21 20 20 17 14 12 11 15 16 18 19 19 17 15 14 11 10 8 5 4 4 3 3 4 5 6 5 6 6 6 5 3 4 3 4 5 3 1 4
9 5 6 4 6 4 4 9 7 7 10 15 18 20 18 15 16 18 18 19 17 17 17 16 15 14 12 10 4 3 3 3 2 2 3 5 6 6 6 6 5 5 3 3 2 3 4 3 2
4 8 7 4 3 2 4 7 7 3 9 10 19 17 18 17 15 15 17 18 19 18 15 16 16 14 13 10 9 7 5 5 4 4 3 5 6 6 6 6 6 5 3 4 2 2 2 3 3
10 2 2 1 3 2 3 4 11 7 9 8 14 15 17 19 17 19 21 20 18 15 15 13 13 13 12 13 12 10 6 4 3 3 5 5 5 6 6 6 6 6 4 4 5 3 3 1 2
3 2 7 5 3 4 3 5 8 10 10 10 7 7 15 17 17 15 16 14 14 12 13 13 12 13 13 14 12 14 11 7 5 4 4 4 4 4 6 7 6 6 5 6 5 4 3 3 2
7 8 5 6 7 6 1 4 1 16 18 16 17 7 6 9 11 13 17 16 14 16 15 13 14 13 13 15 14 13 12 10 10 8 6 5 4 3 6 6 6 4 5 5 5 5 4 4 3
3 7 7 3 1 6 1 5 4 18 17 20 16 15 18 8 12 16 17 17 16 17 16 16 15 14 14 14 15 13 13 8 8 8 6 6 6 6 6 7 6 7 7 6 5 3 4 4 4
2 1 4 7 3 3 3 7 7 26 27 28 26 22 20 17 12 17 17 18 17 17 17 18 16 15 15 16 13 13 12 12 10 9 7 6 5 5 6 6 7 6 6 7 6 4 5 5 5
6 4 4 5 2 3 5 5 7 22 23 22 24 23 22 22 10 3 5 6 9 13 14 14 14 16 15 15 13 11 12 11 8 5 6 6 6 6 5 7 6 7 7 9 7 5 5 6 5
7 5 6 6 4 4 0 1 7 11 10 14 16 16 19 18 19 11 3 4 4 4 3 5 7 10 10 11 12 10 10 9 7 8 8 8 7 7 7 7 7 7 7 6 7 6 6 7 6
5 4 5 6 4 2 4 4 4 7 9 13 15 17 17 18 16 13 12 9 8 6 4 3 3 4 4 4 5 10 8 8 9 9 9 8 9 7 10 8 7 7 6 7 8 8 7 7 6
Wind_Direction
69 172 138 51 46 63 6 29 75 44 40 306 153 181 162 51 154 204 136 138 137 141 155 159 157 150 147 142 139 135 135 138 134 133 134 134 133 130 123 115 110 108 110 119 114 110 115 119 136
157 130 52 100 65 45 355 334 105 115 92 61 64 71 65 107 71 118 115 148 143 140 152 155 160 158 151 150 147 144 144 145 142 140 142 139 137 133 128 114 104 110 119 124 117 109 108 104 119
111 58 75 85 91 56 24 293 145 115 134 206 112 71 69 133 110 139 130 142 139 140 146 156 156 160 159 158 152 151 148 153 149 150 150 144 144 135 129 118 112 117 121 127 117 117 114 113 120
28 16 39 69 37 45 359 274 298 352 89 38 28 53 75 199 140 141 140 139 136 138 143 156 155 160 163 165 156 157 150 159 163 158 157 153 147 140 137 128 119 118 116 114 122 126 132 150 157
29 43 52 98 86 182 237 190 269 302 332 33 71 136 77 94 111 133 138 139 142 137 148 151 155 156 162 168 160 162 154 165 166 163 166 162 162 161 153 140 136 138 144 136 133 131 141 291 142
37 77 51 50 166 203 262 291 119 154 2 107 80 87 78 132 130 143 141 144 145 144 147 154 157 158 163 170 166 168 164 172 167 165 172 172 177 177 168 161 157 157 154 148 147 127 276 287 313
88 82 101 193 210 251 260 127 302 270 145 97 125 64 47 141 134 143 141 144 149 147 142 142 155 167 170 174 165 164 167 173 170 174 183 185 189 179 175 174 168 169 173 175 173 187 266 341 348
112 87 124 234 242 247 209 158 169 165 240 107 155 163 171 168 140 133 131 137 143 142 140 155 157 165 154 168 170 171 172 174 176 181 182 189 182 182 183 168 180 188 188 187 197 252 49 61 49
125 57 282 190 193 248 226 192 138 123 151 203 202 176 144 145 126 119 117 111 118 132 149 164 138 141 161 166 182 174 176 178 180 182 190 189 166 194 196 172 195 199 211 212 39 76 71 38 45
132 152 235 188 171 209 209 192 153 139 187 258 101 104 134 139 140 147 154 152 160 170 185 170 149 160 171 176 193 160 178 173 153 166 211 160 196 209 193 213 215 216 184 70 117 148 114 28 347
184 220 221 215 187 193 196 230 154 137 229 202 157 146 148 155 159 163 169 170 176 172 180 181 165 175 177 186 146 174 151 166 173 184 194 204 188 238 270 253 311 43 81 150 143 252 196 194 211
199 237 253 130 182 159 193 139 179 191 246 158 159 155 158 168 173 176 174 173 166 179 183 185 179 179 188 170 157 179 165 184 189 204 203 198 211 226 238 228 176 163 181 180 233 259 219 263 289
55 337 290 65 164 169 136 198 198 197 131 142 153 161 166 177 180 184 180 166 172 188 186 185 180 183 185 178 162 175 192 193 197 201 202 205 210 229 224 235 194 195 180 207 130 47 322 322 338
284 291 291 288 161 156 155 193 159 174 142 163 165 175 179 177 183 173 179 176 183 190 193 181 184 182 178 181 177 185 185 199 200 210 204 203 222 221 250 170 202 208 196 225 97 105 274 278 280
306 356 333 273 144 166 115 314 221 166 169 180 178 185 186 194 181 186 183 185 180 192 190 186 183 179 182 185 187 184 192 191 206 211 200 197 210 202 164 150 149 209 193 201 119 181 127 277 268
9 40 7 294 254 201 148 265 215 170 172 191 190 185 196 202 203 191 185 183 187 184 186 189 190 182 184 183 184 189 190 187 199 202 204 190 203 170 187 137 186 203 179 208 141 171 152 241 258
3 314 314 319 200 112 189 251 147 174 184 191 193 201 200 205 204 204 192 182 181 188 181 181 187 183 185 181 186 188 193 187 197 191 199 206 193 179 165 147 151 164 162 199 193 171 183 200 212
294 331 314 267 284 176 242 259 170 185 187 204 197 195 203 199 210 194 188 186 183 185 187 183 176 182 188 172 160 154 184 193 200 198 200 201 188 176 163 154 153 149 163 165 177 216 186 180 186
230 227 262 280 273 249 247 261 185 196 207 205 206 193 212 217 204 191 187 183 182 187 186 187 176 182 177 149 144 145 192 192 203 209 197 202 180 173 176 167 166 168 150 184 185 181 211 138 169
206 276 282 270 344 206 215 274 238 191 214 206 204 212 211 208 184 187 181 183 184 183 185 188 189 175 186 179 170 166 181 185 184 199 205 213 190 177 177 176 180 166 135 180 184 174 158 128 185
279 207 253 227 331 358 358 298 272 212 222 218 224 218 212 197 193 190 183 187 184 190 184 187 191 182 187 182 142 85 83 47 91 220 219 216 199 188 193 183 192 178 149 191 205 175 149 148 218
263 235 233 285 63 268 66 280 305 241 216 217 227 217 210 206 199 191 187 188 191 189 183 184 188 186 188 174 180 176 183 170 194 178 200 215 202 200 195 184 193 198 161 164 204 176 145 128 147
227 100 94 350 89 36 341 57 268 353 312 262 239 211 209 204 194 190 194 195 190 185 183 181 187 186 185 185 188 189 194 199 162 160 192 204 213 205 194 189 187 188 189 179 179 190 163 160 140
62 42 38 54 69 33 265 124 302 349 308 312 328 216 202 202 204 195 196 190 190 187 186 179 176 192 183 185 191 196 199 183 170 183 190 210 213 210 198 199 197 201 195 185 189 188 206 186 145
77 53 351 355 13 219 187 60 332 3 6 31 25 4 236 234 221 196 188 189 187 187 188 183 177 186 189 189 193 196 202 197 192 193 186 185 208 225 217 198 194 200 216 207 188 177 193 194 183
70 139 150 247 215 271 115 88 64 13 1 17 29 12 9 280 197 206 202 188 186 190 188 188 184 187 189 192 198 199 202 199 202 202 188 201 208 213 216 202 198 202 202 209 197 188 196 190 200
184 140 182 104 25 29 322 338 288 1 4 2 356 3 5 341 256 210 192 193 189 190 194 192 187 193 191 197 198 201 201 200 199 192 192 202 191 215 220 213 206 211 204 207 192 194 203 200 214
101 143 38 12 69 342 352 67 325 347 346 346 351 358 354 353 340 198 218 217 205 196 195 193 192 193 193 192 196 202 203 206 206 180 192 188 203 213 210 215 225 222 209 203 199 205 209 199 218
12 14 48 111 123 159 13 314 344 329 335 335 336 352 5 356 8 358 57 112 130 118 208 236 216 194 196 192 198 196 207 200 186 195 203 201 199 198 205 205 196 219 237 220 205 208 208 204 212
80 39 108 111 284 87 136 218 358 332 335 352 348 347 358 12 4 2 12 21 47 64 74 125 44 359 350 317 260 202 192 198 203 204 204 193 203 201 207 204 207 201 210 222 215 211 213 205 213